Tracking 19177 objects as of 24-May-2018
HD Live streaming from Space Station
objects crossing your sky now

OPS 9327 (IDSCS 14)

Track OPS 9327 (IDSCS 14) now!
OPS 9327 (IDSCS 14) is classified as:


NORAD ID: 2654
Int'l Code: 1967-003G
Perigee: 33,653.6 km
Apogee: 34,104.5 km
Inclination: 2.7 °
Period: 1,339.4 minutes
Semi major axis: 40250 km
RCS: 0.5011 m2 (medium)
Launch date: January 18, 1967
Source: United States (US)
Launch site: AIR FORCE EASTERN TEST RANGE (AFETR)
aabbcc
Your satellite tracking list
Your tracking list is empty




NASA's NSSDC Master Catalog

Two Line Element Set (TLE):
1  2654U 67003G   18143.73165574 -.00000095 +00000-0 +00000-0 0  9993
2  2654 002.7330 057.8766 0056006 341.2313 231.0723 01.07511113107799
Source of the keplerian elements: AFSPC